Regional Weather Roundup
Issued by NWS

Home | Current Version | Previous Version | Graphics & Text | Print | Product List | Glossary On
Versions: 1 2 3 4 5 6 7 8 9 10 11 12 13 14 15 16 17 18 19 20 21 22 23 24 25 26 27 28 29 30 31 32 33 34 35 36 37 38 39 40 41 42 43 44 45 46 47 48 49 50
000
ASUS43 KFSD 190810
RWRSD

WEATHER ROUNDUP FOR SOUTH DAKOTA
NATIONAL WEATHER SERVICE SIOUX FALLS SD
300 AM CDT TUE SEP 19 2017

NOTE: "FAIR" INDICATES FEW OR NO CLOUDS BELOW 12,000 FEET WITH NO
SIGNIFICANT WEATHER AND/OR OBSTRUCTIONS TO VISIBILITY.


SDZ001>005-009-010-012>017-190900-
NORTHWEST AND NORTH CENTRAL SOUTH DAKOTA

CITY           SKY/WX    TMP DP  RH WIND       PRES   REMARKS
BUFFALO          N/A     63  46  54 E10       29.49F
MOBRIDGE       CLOUDY    64  58  80 SE12      29.66F
$$

SDZ012>016-024>037-041>051-057-063-072>074-190900-
SOUTHWEST AND SOUTH CENTRAL SOUTH DAKOTA

CITY           SKY/WX    TMP DP  RH WIND       PRES   REMARKS
RAPID CTY ARPT NOT AVBL
PIERRE         PTCLDY    62  58  86 SE14G23   29.66F
CUSTER         CLOUDY    62  33  33 S14G24    29.76F
ELLSWORTH AFB  PTCLDY    60  41  49 S13       29.63F
PHILIP         PTCLDY    70  50  49 SW8G18    29.64S
PINE RIDGE     CLEAR     67  52  58 S20G29    29.69F
SPEARFISH      FAIR      68  37  32 S12       29.61F
WINNER         FAIR      67  60  78 S16G23    29.71F
$$

SDZ004>011-016>023-039-040-190900-
NORTHEAST SOUTH DAKOTA

CITY           SKY/WX    TMP DP  RH WIND       PRES   REMARKS
ABERDEEN       CLEAR     61  61 100 SE10      29.75F
WATERTOWN      CLOUDY    63  63 100 S13       29.80F
BROOKINGS      CLOUDY    65  63  93 S14       29.83F
SISSETON         N/A     63  63 100 SE10      29.80F
$$

SDZ017-020-022-023-036>040-048>070-190900-
SOUTHEAST SOUTH DAKOTA

CITY           SKY/WX    TMP DP  RH WIND       PRES   REMARKS
SIOUX FALLS    CLOUDY    68  66  93 S9        29.83F FOG
HURON          MOCLDY    64  63  96 SE13G20   29.75F
CHAMBERLAIN    PTCLDY    61  61 100 E9        29.72F
MITCHELL       CLOUDY    67  65  93 SE13      29.78F
YANKTON        CLOUDY    66  65  96 SE10      29.81F
$$

ABBREVIATIONS USED IN REMARKS
   TC - TEMPERATURE IN CELSIUS
  WCI - WIND CHILL INDEX
   HX - HEAT INDEX
  VSB - VISIBILITY





USA.gov is the U.S. government's official web portal to all federal, state and local government web resources and services.